Regional Weather Roundup
Issued by NWS

Home | Current Version | Previous Version | Graphics & Text | Print | Product List | Glossary On
Versions: 1 2 3 4 5 6 7 8 9 10 11 12 13 14 15 16 17 18 19 20 21 22 23 24 25 26 27 28 29 30 31 32 33 34 35 36 37 38 39 40 41 42 43 44 45 46 47 48 49 50
000
ASUS45 KPSR 291410
RWRAZ

ARIZONA REGIONAL HOURLY WEATHER ROUNDUP
NATIONAL WEATHER SERVICE TUCSON AZ
700 AM MST MON MAY 29 2017

NOTE: FAIR INDICATES FEW OR NO CLOUDS BELOW 12,000 FEET WITH NO
SIGNIFICANT WEATHER AND/OR OBSTRUCTIONS TO VISIBILITY.

AZZ001>003-036-291500-
NORTHWEST ARIZONA

CITY           SKY/WX    TMP DP  RH WIND       PRES   REMARKS
BULLHEAD CITY  SUNNY     75  23  14 S5        29.82R
KINGMAN        SUNNY     70  26  19 E3        29.99R
$$

AZZ004>008-015-016-018-291500-
NORTH CENTRAL ARIZONA

CITY           SKY/WX    TMP DP  RH WIND       PRES   REMARKS
GRAND CANYON   MOSUNNY   62  22  21 E7        30.23R
WILLIAMS       SUNNY     61  27  27 SE12G17   30.20S
PRESCOTT       SUNNY     59  32  36 S3        30.10R
FLAGSTAFF      SUNNY     54  29  38 NE3       30.24R
PAYSON         SUNNY     70  23  17 VRB6      30.12S
PAGE           SUNNY     67  26  21 N3        30.12R
$$

AZZ009>014-017-291500-
NORTHEAST ARIZONA

CITY           SKY/WX    TMP DP  RH WIND       PRES   REMARKS
WINSLOW        SUNNY     59  21  23 SE5       30.16R
SAINT JOHNS    SUNNY     58  25  28 N5        30.16R
WINDOW ROCK    SUNNY     50  22  33 CALM      30.25S
SHOW LOW       SUNNY     54  25  32 CALM      30.20S
$$

AZZ023-291500-
GREATER PHOENIX AREA

CITY           SKY/WX    TMP DP  RH WIND       PRES   REMARKS
PHOENIX        MOSUNNY   78  31  17 E3        29.81R
BUCKEYE        SUNNY     75  28  17 CALM      29.82R
GLENDALE       MOSUNNY   75  34  22 CALM      29.84R
LUKE AFB       SUNNY     74  33  22 NE3       29.81R
DEER VALLEY    SUNNY     78  25  14 E7        29.83R
SCOTTSDALE     SUNNY     74  37  26 NW3       29.84R
MESA-FALCON    SUNNY     72  30  21 N5        29.85R
MESA-GATEWAY   SUNNY     73  25  16 E7          N/A
CHANDLER       SUNNY     73  30  20 CALM      29.83R
$$

AZZ027-028-291500-
SOUTHWEST MARICOPA COUNTY AND PINAL COUNTY

CITY           SKY/WX    TMP DP  RH WIND       PRES   REMARKS
CASA GRANDE    SUNNY     73  27  18 CALM      29.86R
$$

AZZ503-504-507>509-291500-
SOUTHEAST ARIZONA

CITY           SKY/WX    TMP DP  RH WIND       PRES   REMARKS
TUCSON         SUNNY     71  25  17 SE12      29.95R
DAVIS-MONTHAN  SUNNY     72  20  14 SE7       29.94R
RYAN FIELD     SUNNY     64  21  19 CALM      29.93R
NOGALES        SUNNY     64  26  23 CALM      30.01R
SIERRA VISTA   SUNNY     71  16  12 NE3       30.08R
DOUGLAS        SUNNY     60  12  15 CALM      30.04R
SAFFORD        SUNNY     76  27  16 SE9       30.01R
$$

AZZ020-021-025-026-031-291500-
SOUTHWEST ARIZONA

CITY           SKY/WX    TMP DP  RH WIND       PRES   REMARKS
YUMA           MOSUNNY   75  45  34 CALM      29.77R
$$

CAZ031-033-041-043-047-048-061-291500-
SOUTHERN CALIFORNIA

CITY           SKY/WX    TMP DP  RH WIND       PRES   REMARKS
DOWNTOWN L.A.  CLOUDY    62  56  80 N3        29.92R
L.A. AIRPORT   CLOUDY    60  57  89 SW5       29.92S FOG
SAN DIEGO      CLOUDY    62  57  83 N5        29.94S
BURBANK        CLOUDY    57  53  86 SE6       29.92R
ONTARIO        MOSUNNY   58  55  90 CALM      29.92S FOG
RIVERSIDE      MOSUNNY   57  57 100 CALM      29.92S
PALM SPRINGS   MOSUNNY   78  50  37 W6        29.80R
EL CENTRO NAS  SUNNY     73  37  27 W9        29.77R
IMPERIAL       SUNNY     77  38  24 NW5       29.75R
BLYTHE         MOSUNNY   81  25  12 N5        29.78R
NEEDLES        SUNNY     79  16   9 CALM      29.83R
$$

NVZ020-UTZ003-291500-
SOUTHERN NEVADA-UTAH

CITY           SKY/WX    TMP DP  RH WIND       PRES   REMARKS
LAS VEGAS      MOSUNNY   74  20  13 S3        29.93R
SALT LAKE CITY SUNNY     61  41  47 SE3       30.16R
$$

NMZ009-TXZ055-291500-
NEW MEXICO-WEST TEXAS

CITY           SKY/WX    TMP DP  RH WIND       PRES   REMARKS
ALBUQUERQUE    MOSUNNY   65  36  34 VRB5      30.23R
EL PASO        SUNNY     70  45  40 E7        30.14R
$$


........................KEY........................
SKY/WX - SKY CONDITION/WEATHER
TMP    - TEMPERATURE IN FAHRENHEIT
DP     - DEWPOINT IN FAHRENHEIT
RH     - RELATIVE HUMIDITY IN PERCENT
WIND   - DIRECTION AND SPEED IN MILES PER HOUR (MPH)
VRB    - VARIABLE WIND DIRECTION
PRES   - MEAN SEA LEVEL PRESSURE IN INCHES OF MERCURY
         F - FALLING PRESSURE   R - RISING PRESSURE
         S - STEADY PRESSURE
VSB    - VISIBILITY IN MILES
HX     - HEAT INDEX IN FAHRENHEIT
WCI    - WIND CHILL INDEX IN FAHRENHEIT
TC     - TEMPERATURE IN CELSIUS WHICH IS ALSO KNOWN AS
         TEMPERATURE IN CENTIGRADE
AFB    - AIR FORCE BASE
         LUKE AFB IS LUKE AIR FORCE BASE
         DAVIS-MONTHAN IS DAVIS-MONTHAN AIR FORCE BASE
NAS    - NAVAL AIR STATION
         EL CENTRO NAS IS EL CENTRO NAVAL AIR STATION
N/A    - NOT AVAILABLE




USA.gov is the U.S. government's official web portal to all federal, state and local government web resources and services.